SCP
0 0 0 0 0 0 0 0 0 0 0 0 0 0 0 0 0 0 0 0 0 0 0 0 0 0 0 0 0 0 0 0 0 0 0 0 0 0 0 0 0 0 0 0
0 0 0 0 0 0 0 0 0 0 0 0 0 0 0 0 0 0 0 0 0 0 0 0 0 0 0 0 0 0 0 0 0 0 0 0 0 0 0 0 0 0 0 0
0 0 0 0 0 0 0 0 0 0 0 0 0 0 0 0 0 0 0 0 0 0 0 0 0 0 0 0 0 0 0 0 0 0 0 0 0 0 0 0 0 0 0 0
0 0 0 0 0 0 0 0 0 0 0 0 0 0 0 0 0 0 0 0 0 0 0 0 0 0 0 0 0 0 0 0 0 0 0 0 0 0 0 0 0 0 0 0
0 0 0 0 0 0 0 0 0 0 0 0 0 0 0 0 0 0 0 0 0 0 0 0 0 0 0 0 0 0 0 0 0 0 0 0 0 0 0 0 0 0 0 0
0 0 0 0 0 0 0 0 0 0 0 0 0 0 0 0 0 0 0 0 0 0 0 0 0 0 0 0 0 0 0 0 0 0 0 0 0 0 0 0 0 0 0 0
0 0 0 0 0 0 0 0 0 0 0 0 0 0 0 0 0 0 0 0 0 0 0 0 0 0 0 0 0 0 0 0 0 0 0 0 0 0 0 0 0 0 0 0
0 0 0 0 0 0 0 0 0 0 0 0 0 0 0 0 0 0 0 0 0 0 0 0 0 0 0 0 0 0 0 0 0 0 0 0 0 0 0 0 0 0 0 0
0 0 0 0 0 0 0 0 0 0 0 0 0 0 0 0 0 0 0 0 0 0 0 0 0 0 0 0 0 0 0 0 0 0 0 0 0 0 0 0 0 0 0 0
0 0 0 0 0 0 0 0 0 0 0 0 0 0 0 0 0 0 0 0 0 0 0 0 0 0 0 0 0 0 0 0 0 0 0 0 0 0 0 0 0 0 0 0
0 0 0 0 0 0 0 0 0 0 0 0 0 0 0 0 0 0 0 0 0 0 0 0 0 0 0 0 0 0 0 0 0 0 0 0 0 0 0 0 0 0 0 0
0 0 0 0 0 0 0 0 0 0 0 0 0 0 0 0 0 0 0 0 0 0 0 0 0 0 0 0 0 0 0 0 0 0 0 0 0 0 0 0 0 0 0 0
0 0 0 0 0 0 0 0 0 0 0 0 0 0 0 0 0 0 0 0 0 0 0 0 0 0 0 0 0 0 0 0 0 0 0 0 0 0 0 0 0 0 0 0
0 0 0 0 0 0 0 0 0 0 0 0 0 0 0 0 0 0 0 0 0 0 0 0 0 0 0 0 0 0 0 0 0 0 0 0 0 0 0 0 0 0 0 0
0 0 0 0 0 0 0 0 0 0 0 0 0 0 0 0 0 0 0 0 0 0 0 0 0 0 0 0 0 0 0 0 0 0 0 0 0 0 0 0 0 0 0 0
0 0 0 0 0 0 0 0 0 0 0 0 0 0 0 0 0 0 0 0 0 0 0 0 0 0 0 0 0 0 0 0 0 0 0 0 0 0 0 0 0 0 0 0
0 0 0 0 0 0 0 0 0 0 0 0 0 0 0 0 0 0 0 0 0 0 0 0 0 0 0 0 0 0 0 0 0 0 0 0 0 0 0 0 0 0 0 0
0 0 0 0 0 0 0 0 0 0 0 0 0 0 0 0 0 0 0 0 0 0 0 0 0 0 0 0 0 0 0 0 0 0 0 0 0 0 0 0 0 0 0 0
0 0 0 0 0 0 0 0 0 0 0 0 0 0 0 0 0 0 0 0 0 0 0 0 0 0 0 0 0 0 0 0 0 0 0 0 0 0 0 0 0 0 0 0
0 0 0 0 0 0 0 0 0 0 0 0 0 0 0 0 0 0 0 0 0 0 0 0 0 0 0 0 0 0 0 0 0 0 0 0 0 0 0 0 0 0 0 0
0 0 0 0 0 0 0 0 0 0 0 0 0 0 0 0 0 0 0 0 0 0 0 0 0 0 0 0 0 0 0 0 0 0 0 0 0 0 0 0 0 0 0 0
0 0 0 0 0 0 0 0 0 0 0 0 0 0 0 0 0 0 0 0 0 0 0 0 0 0 0 0 0 0 0 0 0 0 0 0 0 0 0 0 0 0 0 0
0 0 0 0 0 0 0 0 0 0 0 0 0 0 0 0 0 0 0 0 0 0 0 0 0 0 0 0 0 0 0 0 0 0 0 0 0 0 0 0 0 0 0 0
0 0 0 0 0 0 0 0 0 0 0 0 0 0 0 0 0 0 0 0 0 0 0 0 0 0 0 0 0 0 0 0 0 0 0 0 0 0 0 0 0 0 0 0
0 0 0 0 0 0 0 0 0 0 0 0 0 0 0 0 0 0 0 0 0 0 0 0 0 0 0 0 0 0 0 0 0 0 0 0 0 0 0 0 0 0 0 0
0 0 0 0 0 0 0 0 0 0 0 0 0 0 0 0 0 0 0 0 0 0 0 0 0 0 0 0 0 0 0 0 0 0 0 0 0 0 0 0 0 0 0 0
0 0 0 0 0 0 0 0 0 0 0 0 0 0 0 0 0 0 0 0 0 0 0 0 0 0 0 0 0 0 0 0 0 0 0 0 0 0 0 0 0 0 0 0
Wind_Speed
5 4 4 5 7 9 8 8 8 8 8 9 10 12 11 10 10 9 9 9 9 8 6 6 5 5 5 4 4 5 5 4 3 2 2 3 3 3 3 3 3 3 3 3
2 2 4 4 7 10 8 6 6 4 8 6 4 5 7 10 12 12 11 11 10 9 8 8 7 6 5 5 4 5 5 4 3 3 3 3 3 3 3 3 3 3 3 3
2 2 1 5 8 10 7 7 9 10 10 4 6 12 15 15 15 15 14 12 12 11 10 9 8 8 7 6 5 5 5 4 3 3 3 2 3 3 3 2 3 3 3 3
2 1 5 9 4 6 8 7 8 7 6 10 11 11 9 10 15 14 13 13 12 11 9 8 7 6 6 6 6 6 5 4 4 4 3 3 3 3 2 1 2 2 2 2
3 2 6 8 4 5 6 7 8 9 6 5 4 5 2 8 12 13 14 11 11 10 9 8 8 8 8 6 6 6 5 5 4 4 4 3 3 2 1 1 1 1 1 2
4 4 5 8 3 3 4 5 6 8 8 8 9 5 8 9 11 10 9 9 9 9 8 9 8 8 9 8 7 7 6 6 5 5 5 4 3 2 1 1 1 1 1 1
5 4 9 9 3 4 5 9 4 7 9 12 11 9 5 9 10 10 10 10 11 11 10 10 9 9 9 8 8 7 5 5 4 4 4 4 3 2 2 2 1 1 1 2
6 4 10 5 5 8 9 3 2 5 8 10 7 3 5 9 11 11 10 9 11 11 9 8 10 10 9 8 7 5 5 5 4 4 4 3 4 2 2 2 2 0 1 2
10 9 6 3 7 5 2 3 3 5 6 8 6 5 5 7 9 10 11 11 10 10 9 7 8 10 10 8 6 6 6 5 4 3 3 3 4 3 2 2 2 1 1 1
4 8 6 6 5 5 4 4 3 4 5 8 7 7 7 7 8 8 9 10 9 10 10 8 8 8 8 7 7 7 6 5 4 4 3 2 2 3 3 3 3 2 2 2
5 7 6 5 4 4 2 2 2 3 4 7 8 7 8 8 9 9 8 8 9 10 11 10 8 7 6 7 8 7 6 5 4 4 4 3 3 3 4 5 5 5 4 4
7 7 5 5 3 2 3 3 4 4 4 4 7 8 8 7 7 8 8 8 9 9 9 8 8 7 6 7 8 8 6 5 4 4 3 3 3 2 5 6 8 9 9 7
6 3 4 4 2 1 2 3 3 4 6 5 4 7 8 6 6 7 8 9 10 10 9 9 8 7 7 7 8 8 7 6 4 4 4 4 3 3 3 4 5 6 8 8
4 2 2 2 2 1 1 1 2 2 2 4 5 6 7 6 6 8 9 10 9 8 8 8 8 8 7 8 8 7 6 7 6 4 4 4 4 4 4 3 3 4 5 8
4 4 4 2 1 1 2 3 4 3 2 3 4 6 7 8 8 8 7 7 7 7 7 8 8 8 7 8 8 8 6 5 5 4 4 4 4 4 4 4 4 4 4 5
3 2 2 1 2 1 1 3 3 3 3 3 4 5 6 7 6 5 6 8 9 9 9 9 9 8 7 8 8 6 6 9 7 4 4 4 4 4 4 4 5 5 5 5
3 3 3 3 4 4 4 4 5 5 4 4 5 5 5 5 5 4 5 7 8 8 8 9 9 7 8 8 8 6 5 6 9 5 4 5 4 5 5 4 5 5 6 7
5 6 5 6 5 4 4 3 4 4 4 4 4 5 6 6 7 6 6 5 5 4 5 7 7 6 7 8 7 6 5 5 5 5 5 5 5 5 5 5 5 6 5 6
2 2 2 3 4 4 3 3 4 4 4 4 5 5 5 6 6 5 5 6 6 6 6 6 8 8 7 8 8 5 5 5 5 4 5 6 5 4 4 5 5 6 5 5
1 1 1 1 1 2 2 2 2 2 3 4 5 4 3 3 3 4 5 5 6 7 5 5 6 6 7 7 9 5 6 6 6 5 5 5 5 5 5 5 6 6 5 5
1 2 3 2 2 2 1 2 3 2 2 3 4 4 4 3 3 4 4 4 5 4 3 5 5 5 5 6 8 5 6 6 6 6 6 6 6 6 6 6 6 6 6 6
1 2 2 2 2 2 1 1 2 2 2 2 2 2 2 2 2 3 4 5 4 4 3 3 4 6 7 7 5 5 6 6 6 5 5 6 6 6 6 6 6 6 6 6
1 1 1 1 1 1 2 2 1 1 1 1 2 2 3 3 3 3 4 4 3 4 3 4 6 8 9 5 5 5 6 6 6 6 6 6 6 6 6 7 6 6 6 6
1 1 1 1 2 2 2 2 1 1 0 1 2 2 2 2 2 3 4 4 5 5 4 5 8 9 7 4 4 5 5 6 6 6 6 5 5 5 6 6 6 6 6 7
1 1 1 1 1 0 1 1 1 1 1 1 2 2 2 3 3 4 3 3 5 5 4 6 9 8 5 4 4 5 5 5 6 5 5 5 5 5 5 6 6 6 6 6
1 1 1 1 1 1 1 1 1 1 1 2 3 2 2 2 2 3 3 3 4 5 4 3 4 5 4 4 5 5 5 5 5 5 5 5 6 6 6 6 8 7 6 7
1 1 1 1 2 1 1 1 2 2 2 2 3 3 3 2 2 3 3 3 3 3 3 3 3 3 4 4 4 4 4 4 4 5 5 5 5 5 6 7 6 6 6 6
Wind_Direction
232 216 179 198 195 181 190 193 190 223 224 237 209 193 183 170 160 160 167 170 172 171 169 163 155 151 148 147 144 136 127 123 126 119 105 89 73 62 57 58 55 45 42 28
273 220 202 226 219 199 210 204 213 233 250 244 180 150 159 170 171 177 182 182 179 175 171 172 169 164 156 154 152 140 133 135 130 117 104 93 84 73 67 58 50 51 43 34
258 300 76 254 222 197 203 201 183 207 230 173 166 184 188 186 185 188 187 183 181 181 181 178 176 169 165 162 149 139 139 139 136 130 118 111 101 85 73 62 57 53 37 35
154 118 232 244 251 199 203 221 205 214 214 188 195 196 191 185 187 191 186 182 182 179 176 173 166 162 153 145 146 146 146 148 149 141 135 124 107 97 85 76 72 61 40 29
137 198 277 290 256 185 184 249 215 209 217 189 115 93 230 204 194 193 187 180 177 174 168 162 162 159 147 147 149 151 160 166 167 159 151 142 134 132 124 104 78 61 42 31
134 168 236 252 257 178 131 268 238 192 191 154 130 154 232 199 184 180 170 162 158 152 149 158 163 154 151 158 161 176 183 180 173 165 162 165 169 164 156 139 131 89 39 15
161 204 256 252 251 124 156 239 237 186 179 165 180 199 199 160 169 166 160 157 154 154 161 168 161 156 159 166 184 190 176 168 169 174 175 174 165 161 154 142 115 72 22 343
152 187 251 241 151 178 214 236 194 180 177 180 193 156 136 155 159 156 152 151 155 158 163 161 161 161 166 183 191 170 159 163 174 181 185 168 159 160 151 142 128 107 353 327
187 209 234 224 214 236 217 222 212 188 186 173 166 165 154 156 157 160 159 158 158 157 155 159 167 168 174 188 168 155 156 168 177 174 175 168 167 169 162 159 163 200 217 272
242 266 261 260 253 255 223 226 228 193 170 161 163 162 154 153 156 158 158 160 156 153 157 168 175 179 182 170 158 155 163 173 171 170 180 183 182 180 178 188 196 210 220 242
252 273 295 285 248 243 232 218 182 150 162 165 154 156 159 160 164 165 160 159 159 163 167 173 173 180 177 162 155 159 168 174 176 183 186 191 200 206 204 213 201 200 215 216
224 232 211 255 278 227 196 200 177 149 138 156 161 160 158 162 165 162 160 157 160 165 167 170 170 178 177 168 163 161 169 180 184 187 191 193 202 248 245 233 238 231 228 220
227 234 211 254 289 242 206 212 184 167 163 161 164 157 154 156 160 157 159 164 172 175 173 169 170 178 180 173 168 171 179 186 186 187 190 194 197 207 252 279 267 256 251 247
236 203 246 255 260 269 167 140 117 110 132 148 150 147 146 143 148 161 175 181 175 168 168 169 174 187 185 174 174 182 185 191 188 192 194 198 203 209 213 229 264 278 272 265
242 211 214 245 358 54 95 109 111 120 128 133 142 148 153 158 171 183 181 166 155 161 172 175 183 196 183 176 180 184 184 189 191 192 195 200 204 209 217 226 237 254 275 282
248 236 197 190 217 202 143 143 154 181 171 164 165 173 175 173 172 169 165 161 165 181 187 186 197 200 181 179 182 186 194 202 194 189 194 200 205 211 220 227 235 243 251 257
194 225 221 222 223 215 205 199 194 193 182 180 186 173 156 148 149 163 177 181 185 191 190 192 202 192 179 182 183 189 194 205 205 198 200 204 207 215 221 225 233 242 248 250
219 220 209 202 204 211 220 211 195 188 188 191 161 146 154 165 180 190 188 177 176 192 204 204 197 181 181 185 187 188 190 195 197 202 207 211 214 216 218 225 234 243 254 262
236 232 232 219 208 195 198 201 198 195 185 161 153 164 174 182 188 182 165 161 177 205 223 214 198 184 187 194 187 185 188 193 200 208 210 218 221 220 222 229 237 243 248 253
8 11 30 38 81 144 172 185 170 163 164 152 146 146 157 181 176 164 161 180 203 212 213 197 191 193 198 203 195 186 192 198 204 210 211 212 219 227 230 234 239 244 246 248
40 48 60 67 61 64 96 130 130 137 140 140 148 166 183 193 175 161 161 204 238 230 214 199 194 200 200 201 197 191 197 203 207 210 213 218 224 231 236 239 240 242 244 247
46 72 73 73 73 50 30 73 107 117 110 122 146 162 166 184 185 185 200 217 234 222 201 201 204 211 212 205 193 195 203 207 211 212 215 219 223 230 236 237 238 240 243 245
48 68 77 86 97 45 27 45 62 97 122 160 177 187 198 206 192 186 231 240 232 222 205 211 222 223 219 204 195 200 207 212 216 218 221 223 225 229 234 238 240 241 244 247
61 43 20 32 66 64 35 346 348 350 301 261 234 218 202 206 238 230 227 243 237 226 214 224 229 227 218 202 201 206 213 217 220 222 223 224 226 228 232 237 243 245 246 249
36 40 44 64 70 236 252 273 319 323 315 300 290 273 242 209 219 238 237 236 239 232 227 238 240 237 218 205 208 214 218 222 223 220 217 222 227 231 235 237 241 246 248 249
320 320 299 261 237 233 240 239 249 264 270 293 297 289 278 264 244 240 239 237 237 239 231 230 231 231 217 213 214 217 221 232 238 231 223 226 231 234 238 242 246 246 249 251
311 305 314 316 299 261 238 232 243 259 251 244 266 272 268 264 256 249 244 239 236 231 228 226 221 217 218 219 221 223 223 223 224 227 229 232 234 237 241 245 248 250 251 253